Regional Weather Roundup
Issued by NWS Raleigh/Durham, NC

Home | Current Version | Previous Version | Text Only | Print | Product List | Glossary On
Versions: 1 2 3 4 5 6 7 8 9 10 11 12 13 14 15 16 17 18 19 20 21 22 23 24 25 26 27 28 29 30 31 32 33 34 35 36 37 38 39 40 41 42 43 44 45 46 47 48 49 50
000
ASUS42 KRAH 260210
RWRRAH
NORTH CAROLINA WEATHER ROUNDUP
NATIONAL WEATHER SERVICE RALEIGH NC
1000 PM EDT MON SEP 25 2017

NOTE: "FAIR" INDICATES FEW OR NO CLOUDS BELOW 12,000 FEET WITH NO
SIGNIFICANT WEATHER AND/OR OBSTRUCTIONS TO VISIBILITY.

NCZ001-053-055-056-065-067-260300-
WESTERN NORTH CAROLINA

CITY           SKY/WX    TMP DP  RH WIND       PRES   REMARKS
ASHEVILLE      CLEAR     65  61  87 CALM      30.06R
JEFFERSON      CLEAR     66  58  77 N3        30.12S
MORGANTON      PTCLDY    70  66  88 N3        30.04R
HICKORY        PTCLDY    69  65  86 N3        30.00R
RUTHERFORDTON  CLEAR     72  63  73 N5        30.00R
MOUNT AIRY     PTCLDY    73  64  74 CALM      30.03R
BOONE          CLEAR     61  57  87 CALM      30.12S
$$

NCZ021-022-025-041-071-084-088-260300-
CENTRAL NORTH CAROLINA

CITY           SKY/WX    TMP DP  RH WIND       PRES   REMARKS
CHARLOTTE      MOCLDY    74  65  73 N6        29.97R
GREENSBORO     MOCLDY    73  66  78 NE3       29.98R
WINSTON-SALEM  PTCLDY    73  66  78 N6        30.00R
RALEIGH-DURHAM MOCLDY    73  68  84 NE8       29.95S
FORT BRAGG     MOCLDY    74  67  78 N3        29.91R
FAYETTEVILLE   MOCLDY    74  69  85 N7        29.91R
BURLINGTON     PTCLDY    72  64  76 NE6       29.96S
LAURINBURG     CLEAR     73  68  84 NE7       29.91S
$$

NCZ011-015-027-028-043-044-047-080-103-260300-
NORTHEASTERN NORTH CAROLINA

CITY           SKY/WX    TMP DP  RH WIND       PRES   REMARKS
ROCKY MT-WILSO PTCLDY    72  68  87 NE7       29.94R
GREENVILLE     MOCLDY    73  68  83 N9        29.94S
WASHINGTON     CLOUDY    71  69  92 N9        29.90F
ELIZABETH CITY CLOUDY    72  72 100 N13       29.92S
MANTEO         CLOUDY    71  71  99 NE16G23   29.89S
CAPE HATTERAS  CLOUDY    76  75  97 NE14G24   29.82F
$$

NCZ078-087-090-091-093-098-101-260300-
SOUTHEASTERN NORTH CAROLINA

CITY           SKY/WX    TMP DP  RH WIND       PRES   REMARKS
LUMBERTON      NOT AVBL
GOLDSBORO      MOCLDY    75  72  88 N12       29.90S
KINSTON        CLOUDY    73  68  83 N12       29.91S
KENANSVILLE    CLOUDY    75  70  83 N10       29.90S
NEW BERN       CLOUDY    73  70  90 N15G23    29.88F
CHERRY POINT   CLOUDY    75  72  90 N16       29.86S
BEAUFORT       CLOUDY    74  74 100 N17G26    29.82F
JACKSONVILLE   CLOUDY    76  72  87 N14       29.86S
WILMINGTON     CLOUDY    76  70  82 N13       29.85F
$$




USA.gov is the U.S. government's official web portal to all federal, state and local government web resources and services.